Satellite: FCAL
Catalog number: 29667
Epoch time:      08038.89126955
Element set:     736
Inclination:      051.6332 deg
RA of node:       288.6729 deg
Eccentricity:    0.0009253
Arg of perigee:   184.5292 deg
Mean anomaly:     175.5636 deg
Mean motion:   16.01006686 rev/day
Decay rate:     3.9094e-04 rev/day^2
Epoch rev:            6558
Checksum:              345

Satellite: FALCON
Catalog number: 30776
Epoch time:      08038.90634462
Element set:     243
Inclination:      035.4331 deg
RA of node:       223.5539 deg
Eccentricity:    0.0001996
Arg of perigee:   330.0480 deg
Mean anomaly:     030.0121 deg
Mean motion:   15.02873237 rev/day
Decay rate:       4.43e-06 rev/day^2
Epoch rev:            5053
Checksum:              254

Satellite: MAST
Catalog number: 31126
Epoch time:      08037.74873558
Element set:    0251
Inclination:      098.0558 deg
RA of node:       107.3436 deg
Eccentricity:    0.0095309
Arg of perigee:   019.8472 deg
Mean anomaly:     340.6390 deg
Mean motion:   14.53397284 rev/day
Decay rate:        3.6e-07 rev/day^2
Epoch rev:           04292
Checksum:              309

Satellite: CAPE1
Catalog number: 31130
Epoch time:      08037.77386743
Element set:    0235
Inclination:      098.0541 deg
RA of node:       106.6781 deg
Eccentricity:    0.0103309
Arg of perigee:   021.7338 deg
Mean anomaly:     338.8196 deg
Mean motion:   14.51928558 rev/day
Decay rate:       1.54e-06 rev/day^2
Epoch rev:           04265
Checksum:              300

/EX





More information about the Keps mailing list